sat.trackr.live / text

‹ back to catalog

STARLINK-2099

NORAD 47379 · 2021-005AG

PAYLOAD ACTIVE UNKNOWN

§ Identity

Operator
Country
US
Launch date
2021-01-20
Launch site
AFETR
Launch vehicle
Mass (kg)
RCS (m²)

Purposes: comms

External: N2YO · Heavens-Above · Gunter

§ Orbital elements

Epoch: 2026-09-04T01:05:02.441760Z

Period
94.01 min
Inclination
53.1598°
Eccentricity
0.0001335
Mean motion
15.31701937 rev/d
Perigee alt
469.8 km
Apogee alt
471.6 km
Semi-major
6,848.9 km
B*
-1.1188e-5
RAAN
263.5333°
Arg perigee
103.6605°
Mean anomaly
256.4546°
Rev number
31,105

§ Raw data

STARLINK-20991 47379U 21005AG  26247.04516715 -.00000712  00000+0 -11188-4 0  99922 47379  53.1598 263.5333 0001335 103.6605 256.4546 15.31701937311050

JSON: /api/v1/satellites/47379 · /tle

For live sub-satellite position, see the globe view (requires WebGL).

§ Visibility from observer

Set your observer location to see the next 7 days of passes ≥ 10°. The values pass through the URL so the page stays shareable.

No JS? Fill the form by hand. The geolocation button needs JavaScript.